Location: Campestrin
(46.4667°N, 11.7167°E)
Time: 11:01:27
(UTC+00:00)

USA 215 - Pass Details

Date: 18 April 2021
Orbit: 1101 x 1107 km, 123.0° (Epoch: 05 May)

Event Time Altitude Azimuth Distance (km) Brightness Sun altitude
Exits shadow 20:45:39 44° 159° (SSE) 1,472 3.5 -23.7°
Maximum altitude 20:47:42 66° 222° (SW) 1,196 3.3 -23.9°
Drops below altitude 10° 20:54:12 10° 304° (NW) 2,964 6.5 -24.6°
Sets 20:56:43 0° 307° (NW) 3,924 7.4 -24.9°
